Cloud_Cover
0 3 5 5 1 5 0 2 5 2 14 92 100 100 100 100 100 100 100 100 100 100 100 100 100 100 100
5 5 5 5 1 0 1 5 0 0 44 86 71 100 100 100 100 100 100 100 100 100 100 100 100 100 100
5 5 5 3 5 5 5 4 3 3 5 5 5 44 92 99 100 100 100 100 100 100 100 100 100 100 100
5 40 83 6 70 16 5 5 5 0 0 5 10 5 5 6 5 21 95 100 100 100 100 100 100 100 100
97 97 92 98 5 21 46 5 3 5 26 74 5 5 5 4 5 5 93 100 100 100 100 100 100 100 100
99 100 19 28 100 100 5 5 80 31 78 22 5 5 5 5 5 83 100 99 100 100 100 100 100 100 100
75 17 91 74 96 66 37 100 99 54 54 93 5 5 5 5 5 64 99 99 100 100 100 100 100 100 100
97 98 100 94 100 100 100 86 18 5 5 97 14 52 5 5 5 5 5 65 98 100 100 100 100 100 100
20 92 100 97 100 100 49 100 95 81 56 100 32 82 5 5 5 2 5 21 28 70 98 100 100 100 100
6 5 1 5 7 36 80 100 100 100 60 100 92 99 84 5 5 4 4 5 47 23 91 93 83 100 100
5 5 5 5 5 16 100 100 100 99 72 100 100 99 100 83 24 5 5 5 5 5 5 67 44 100 100
5 5 38 6 5 28 40 72 51 94 90 100 100 100 100 100 96 8 5 5 14 5 5 5 40 93 100
87 97 44 7 51 94 75 76 85 90 80 100 100 99 100 100 100 71 93 73 69 22 81 98 98 100 100
47 100 81 100 100 94 100 100 100 34 100 97 92 100 100 100 100 100 95 100 91 100 100 100 100 84 96
100 100 93 100 87 92 100 100 100 100 63 43 49 90 92 100 100 87 100 100 99 85 97 100 76 100 57
100 100 100 100 100 88 100 100 100 99 100 72 84 88 41 100 100 100 99 85 73 100 100 100 69 97 100
100 100 100 100 100 100 100 100 100 100 85 91 100 100 100 100 100 100 100 100 98 90 90 100 100 100 100